Weather History for Martinsville, VA

Change the Weather History Date:

Tuesday, March 12, 2013

  Actual Average (KGSO) Record (KGSO)
Temperature  
Mean Temperature 56 °F 49 °F  
Max Temperature 67 °F 60 °F 86 °F (1990)
Min Temperature 42 °F 38 °F 15 °F (1934)
Degree Days  
Heating Degree Days 10 16  
Month to date heating degree days 214  
Since 1 July heating degree days 3069  
Cooling Degree Days 0 0  
Month to date cooling degree days 0  
Year to date cooling degree days 0  
Growing Degree Days 6 (Base 50)    
Moisture  
Dew Point 40 °F    
Average Humidity 53    
Maximum Humidity 100    
Minimum Humidity 34    
Precipitation  
Precipitation 0.72 in 0.12 in 2.01 in (1968)
Month to date precipitation 1.43  
Year to date precipitation 7.45  
Snow  
Snow 0.00 in 0.00 in 5.00 in (1914)
Month to date snowfall 0.5  
Since 1 July snowfall 7.2  
Snow Depth -    
Sea Level Pressure  
Sea Level Pressure 29.86 in    
Wind  
Wind Speed 6 mph (NW)    
Max Wind Speed 16 mph    
Max Gust Speed 22 mph    
Visibility 9 miles    
Events Rain    
T = Trace of Precipitation, MM = Missing Value Source: NWS Daily Summary

Daily Weather History Graph

Daily Weather History Graph

Search for Another Location

Airport:

Trip Planner

Search our weather history database for the weather conditions in past years. The results will help you decide how hot, cold, wet, or windy it might be!

Date:

Astronomy

Mar. 12, 2013 Rise Set
Actual Time 7:34 AM EDT 7:24 PM EDT
Civil Twilight 7:09 AM EDT 7:50 PM EDT
Nautical Twilight 6:39 AM EDT 8:20 PM EDT
Astronomical Twilight 6:09 AM EDT 8:50 PM EDT
Moon 7:43 AM EDT (3/12) 8:35 PM EDT (3/12)
Length of Visible Light 12h 41m
Length of Day
11h 50m
New Moon, 1% of the Moon is Illuminated
Mar 12
New Moon
Mar 19
First Quarter
Mar 27
Full
Apr 3
Last Quarter
Apr 10
New

Hourly Weather History & Observations

Time (EDT) Temp. Windchill Dew Point Humidity Pressure Visibility Wind Dir Wind Speed Gust Speed Precip Events Conditions
12:15 AM 59.4 °F - 59.4 °F 100% 29.90 in 10.0 mi South 3.5 mph - N/A Rain Light Rain
12:35 AM - - - N/A% 29.90 in 10.0 mi South 3.5 mph - 0.02 in Rain Light Rain
12:55 AM - - - N/A% 29.89 in 5.0 mi South 3.5 mph - 0.05 in Rain Rain
1:15 AM - - - N/A% 29.88 in 7.0 mi South 4.6 mph - 0.02 in Rain Light Rain
1:35 AM - - - N/A% 29.86 in 7.0 mi SSE 6.9 mph - 0.03 in Rain Light Rain
1:55 AM - - - N/A% 29.86 in 10.0 mi South 5.8 mph - 0.05 in Rain Light Rain
2:15 AM - - - N/A% 29.86 in 7.0 mi SSE 4.6 mph - 0.01 in Rain Rain
2:35 AM - - - N/A% 29.84 in 7.0 mi South 4.6 mph - 0.04 in Rain Rain
2:55 AM - - - N/A% 29.83 in 7.0 mi South 4.6 mph - 0.06 in Rain Rain
3:15 AM - - - N/A% 29.83 in 5.0 mi South 6.9 mph - 0.03 in Rain Rain
3:35 AM - - - N/A% 29.81 in 5.0 mi SSE 6.9 mph - 0.08 in Rain Rain
3:55 AM - - - N/A% 29.80 in 10.0 mi SSE 5.8 mph - 0.09 in Rain Rain
4:15 AM - - - N/A% 29.78 in 4.0 mi South 4.6 mph - 0.06 in Rain Rain
4:35 AM - - - N/A% 29.77 in 5.0 mi South 4.6 mph - 0.12 in Rain Rain
4:55 AM - - - N/A% 29.76 in 4.0 mi SSW 5.8 mph - 0.17 in Rain Rain
5:15 AM - - - N/A% 29.76 in 5.0 mi SSW 3.5 mph - 0.10 in Rain Rain
5:35 AM - - - N/A% 29.76 in 7.0 mi SSW 3.5 mph - 0.12 in Rain Rain
5:55 AM - - - N/A% 29.75 in 4.0 mi SSW 3.5 mph - 0.20 in Rain Rain
6:15 AM - - - N/A% 29.75 in 5.0 mi South 4.6 mph - 0.02 in   Drizzle
6:35 AM - - - N/A% 29.75 in 4.0 mi SSW 6.9 mph - 0.04 in Rain Heavy Rain
6:55 AM - - - N/A% 29.75 in 5.0 mi SSW 10.4 mph 17.3 mph 0.06 in   Drizzle
7:15 AM - - - N/A% 29.75 in 10.0 mi SSW 6.9 mph - N/A   Light Drizzle
7:35 AM - - - N/A% 29.76 in 5.0 mi WSW 4.6 mph - 0.01 in Rain Heavy Rain
7:55 AM - - - N/A% 29.77 in 10.0 mi West 4.6 mph - 0.03 in   Overcast
8:15 AM - - - N/A% 29.77 in 10.0 mi Calm Calm - N/A Rain Light Rain
8:35 AM - - - N/A% 29.80 in 10.0 mi Calm Calm - N/A   Overcast
8:55 AM 57.2 °F - 56.8 °F 99% 29.80 in 10.0 mi NNW 9.2 mph - N/A   Overcast
9:35 AM 56.7 °F - 51.6 °F 83% 29.82 in 10.0 mi NNW 10.4 mph - N/A   Overcast
9:55 AM 57.4 °F - 51.3 °F 80% 29.82 in 10.0 mi NNW 10.4 mph - N/A   Overcast
10:15 AM 57.4 °F - 49.3 °F 74% 29.84 in 10.0 mi NNW 16.1 mph 20.7 mph 0.01 in   Overcast
10:35 AM 56.8 °F - 48.6 °F 74% 29.85 in 10.0 mi NNW 12.7 mph 18.4 mph 0.01 in   Overcast
10:55 AM 56.3 °F - 47.1 °F 71% 29.86 in 10.0 mi NNW 11.5 mph - 0.01 in   Overcast
11:15 AM 59.0 °F - 48.2 °F 67% 29.86 in 10.0 mi NNW 13.8 mph 21.9 mph N/A   Mostly Cloudy
11:35 AM 58.6 °F - 46.4 °F 64% 29.86 in 10.0 mi North 11.5 mph 16.1 mph N/A   Scattered Clouds
11:55 AM 59.0 °F - 45.7 °F 61% 29.86 in 10.0 mi NNW 12.7 mph 18.4 mph N/A   Clear
12:15 PM 60.4 °F - 46.0 °F 59% 29.87 in 10.0 mi NW 10.4 mph - N/A   Clear
12:35 PM 61.7 °F - 46.2 °F 57% 29.86 in 10.0 mi NW 8.1 mph 17.3 mph N/A   Clear
12:55 PM 62.2 °F - 45.3 °F 54% 29.86 in 10.0 mi NW 10.4 mph 16.1 mph N/A   Clear
1:15 PM 63.9 °F - 45.1 °F 51% 29.85 in 10.0 mi NNW 6.9 mph - N/A   Clear
1:35 PM 64.2 °F - 44.8 °F 49% 29.85 in 10.0 mi NNW 6.9 mph - N/A   Clear
1:55 PM 65.3 °F - 44.1 °F 46% 29.85 in 10.0 mi North 8.1 mph - N/A   Clear
2:15 PM 65.8 °F - 43.2 °F 44% 29.84 in 10.0 mi NNE 6.9 mph - N/A   Clear
2:35 PM 66.2 °F - 42.1 °F 41% 29.84 in 10.0 mi North 11.5 mph - N/A   Clear
2:55 PM 66.4 °F - 41.9 °F 41% 29.84 in 10.0 mi North 9.2 mph 17.3 mph N/A   Clear
3:15 PM 67.1 °F - 41.7 °F 40% 29.84 in 10.0 mi North 6.9 mph - N/A   Clear
3:35 PM 66.2 °F - 41.2 °F 40% 29.84 in 10.0 mi NNW 12.7 mph - N/A   Clear
3:55 PM 66.0 °F - 41.5 °F 41% 29.85 in 10.0 mi NNW 12.7 mph 17.3 mph N/A   Clear
4:15 PM 65.5 °F - 39.6 °F 39% 29.86 in 10.0 mi North 8.1 mph 19.6 mph N/A   Clear
4:35 PM 64.9 °F - 38.3 °F 37% 29.85 in 10.0 mi North 12.7 mph - N/A   Clear
4:55 PM 64.6 °F - 38.1 °F 38% 29.86 in 10.0 mi North 10.4 mph 18.4 mph N/A   Clear
5:15 PM 64.4 °F - 37.8 °F 37% 29.86 in 10.0 mi NNW 9.2 mph - N/A   Clear
5:35 PM 64.4 °F - 37.0 °F 36% 29.87 in 10.0 mi NNW 12.7 mph 16.1 mph N/A   Clear
5:55 PM 63.5 °F - 34.5 °F 34% 29.87 in 10.0 mi North 10.4 mph 16.1 mph N/A   Clear
6:15 PM 62.6 °F - 34.2 °F 35% 29.88 in 10.0 mi North 9.2 mph - N/A   Clear
6:35 PM 61.2 °F - 34.2 °F 36% 29.88 in 10.0 mi North 9.2 mph - N/A   Clear
6:55 PM 59.2 °F - 31.1 °F 35% 29.90 in 10.0 mi NNW 10.4 mph 17.3 mph N/A   Clear
7:15 PM 56.8 °F - 31.5 °F 38% 29.91 in 10.0 mi NNW 8.1 mph - N/A   Clear
7:35 PM 55.6 °F - 31.8 °F 41% 29.93 in 10.0 mi North 10.4 mph - N/A   Clear
7:55 PM 54.5 °F - 32.0 °F 42% 29.94 in 10.0 mi North 8.1 mph - N/A   Clear
8:15 PM 52.9 °F - 32.0 °F 45% 29.95 in 10.0 mi North 6.9 mph - N/A   Clear
8:35 PM 52.2 °F - 32.7 °F 48% 29.96 in 10.0 mi NNW 9.2 mph - N/A   Clear
8:55 PM 51.8 °F - 32.9 °F 49% 29.98 in 10.0 mi North 9.2 mph 16.1 mph N/A   Clear
9:15 PM 51.1 °F - 33.1 °F 50% 29.98 in 10.0 mi NNW 8.1 mph - N/A   Clear
9:35 PM 50.2 °F - 33.1 °F 52% 29.99 in 10.0 mi NNW 5.8 mph - N/A   Clear
9:55 PM 49.5 °F - 33.1 °F 53% 29.99 in 10.0 mi North 5.8 mph - N/A   Clear
10:15 PM 48.4 °F - 32.9 °F 55% 30.00 in 10.0 mi NNW 4.6 mph - N/A   Clear
10:35 PM 48.0 °F - 32.9 °F 56% 30.00 in 10.0 mi NNW 5.8 mph - N/A   Clear
10:55 PM 47.3 °F - 33.1 °F 58% 30.01 in 10.0 mi NNW 4.6 mph - N/A   Clear
11:15 PM 44.6 °F 43.1 °F 33.3 °F 64% 30.01 in 10.0 mi NNW 3.5 mph - N/A   Clear
11:35 PM 45.5 °F 44.2 °F 33.4 °F 63% 30.00 in 10.0 mi NNW 3.5 mph - N/A   Clear
11:55 PM 42.6 °F - 33.8 °F 71% 30.01 in 10.0 mi Calm Calm - N/A   Clear